KB1WCR Weather Reports


time (UTC)temp
F
wind
direction
speed
knots
gust
knots
rain 1hr
in
rain 24hr
in
rain mn
in
humidity
%
barometer
mb
20260510105920 49 208 0.9 0.9 0.00 0.01 0.01 99 1012.1
20260510105415 49 267 0.0 0.9 0.00 0.01 0.01 99 1011.8
20260510104911 49 179 0.9 1.7 0.00 0.01 0.01 99 1011.7
20260510104408 49 250 0.0 0.9 0.00 0.01 0.01 99 1011.8
20260510103904 49 244 1.7 1.7 0.00 0.01 0.01 99 1011.7
20260510103401 48 259 0.0 0.0 0.00 0.01 0.01 99 1011.4
20260510102856 48 229 1.7 1.7 0.00 0.01 0.01 99 1011.8
20260510102347 48 249 0.9 1.7 0.00 0.01 0.01 99 1011.7
20260510101844 49 229 0.9 1.7 0.00 0.01 0.01 99 1012.0
20260510101342 48 265 0.0 0.9 0.00 0.01 0.01 99 1011.6
20260510100838 48 270 0.0 0.0 0.00 0.01 0.01 99 1011.4
20260510100336 48 257 0.0 0.0 0.00 0.01 0.01 99 1011.4
20260510095832 48 192 0.0 0.9 0.00 0.01 0.01 99 1011.5
20260510095327 48 282 0.0 0.0 0.00 0.01 0.01 99 1011.5
20260510094821 48 285 0.0 0.9 0.00 0.01 0.01 99 1011.5
20260510094316 48 269 0.0 0.0 0.00 0.01 0.01 99 1011.4
20260510093813 48 274 0.0 0.0 0.00 0.01 0.01 99 1011.4
20260510093309 48 285 0.0 0.0 0.00 0.01 0.01 99 1011.5
20260510092806 48 249 0.0 0.0 0.00 0.01 0.01 99 1011.6
20260510092301 48 298 0.0 0.0 0.00 0.01 0.01 99 1011.5
20260510091757 48 304 0.0 0.0 0.00 0.01 0.01 99 1011.6
20260510091255 48 302 0.0 0.0 0.00 0.01 0.01 99 1011.6
20260510090751 48 284 0.0 0.0 0.00 0.01 0.01 99 1011.8
20260510090248 48 283 0.0 0.0 0.00 0.01 0.01 99 1011.6
20260510085743 48 283 0.0 0.0 0.00 0.01 0.01 99 1011.8
20260510085238 48 285 0.0 0.0 0.00 0.01 0.01 99 1011.6
20260510084734 47 294 0.0 0.0 0.00 0.01 0.01 99 1011.2
20260510084231 47 281 0.0 0.0 0.00 0.01 0.01 99 1011.5
20260510083727 48 284 0.0 0.0 0.00 0.01 0.01 99 1011.4
20260510083225 47 305 0.0 0.0 0.00 0.01 0.01 99 1011.3
20260510082720 47 308 0.0 0.0 0.00 0.01 0.01 99 1011.5
20260510082217 47 337 0.0 0.0 0.07 0.01 0.01 99 1011.6
20260510081716 47 287 0.0 0.0 0.07 0.01 0.01 99 1011.9
20260510081212 47 283 0.0 0.0 0.07 0.01 0.01 99 1011.9
20260510080707 47 291 0.0 0.0 0.00 0.00 0.00 99 1011.7
20260510080204 47 294 0.0 0.0 0.00 0.00 0.00 99 1011.7
20260510075700 47 287 0.0 0.0 0.00 0.00 0.00 99 1011.7
20260510075158 47 282 0.0 0.0 0.00 0.00 0.00 99 1011.8
20260510074655 47 280 0.0 0.0 0.00 0.00 0.00 99 1011.6
20260510074151 47 285 0.0 0.0 0.00 0.00 0.00 99 1011.5
20260510073648 47 300 0.0 0.0 0.00 0.00 0.00 99 1011.7
20260510073144 47 303 0.0 0.0 0.00 0.00 0.00 99 1011.4
20260510072640 47 305 0.0 0.0 0.00 0.00 0.00 99 1011.6
20260510072136 47 290 0.0 0.0 0.00 0.00 0.00 99 1011.5
20260510071632 46 320 0.0 0.0 0.00 0.00 0.00 99 1011.5
20260510071130 46 321 0.0 0.0 0.00 0.00 0.00 99 1011.6
20260510070628 46 277 0.0 0.0 0.00 0.00 0.00 99 1011.5
20260510070125 46 279 0.0 0.0 0.00 0.00 0.00 99 1011.7
20260510065620 46 279 0.0 0.0 0.00 0.00 0.00 99 1011.6
20260510065116 46 319 0.0 0.0 0.00 0.00 0.00 99 1011.7
20260510064613 46 314 0.0 0.9 0.00 0.00 0.00 99 1011.7
20260510064110 46 324 0.0 0.0 0.00 0.00 0.00 99 1012.1
20260510063607 46 313 0.0 0.0 0.00 0.00 0.00 99 1012.3
20260510063103 46 300 0.0 0.0 0.00 0.00 0.00 99 1012.2
20260510062554 46 296 0.0 0.0 0.00 0.00 0.00 99 1012.3
20260510062049 46 299 0.0 0.0 0.00 0.00 0.00 99 1012.3
20260510061546 46 305 0.0 0.0 0.00 0.00 0.00 99 1012.4
20260510061043 46 290 0.0 0.0 0.00 0.00 0.00 99 1012.4
20260510060539 46 294 0.0 0.0 0.00 0.00 0.00 99 1012.5
20260510060035 46 296 0.0 0.0 0.00 0.00 0.00 99 1012.5
20260510055531 46 302 0.0 0.0 0.00 0.00 0.00 99 1012.3
20260510055030 45 296 0.0 0.0 0.00 0.00 0.00 99 1012.5
20260510054525 45 298 0.0 0.0 0.00 0.00 0.00 99 1012.4
20260510054020 45 290 0.0 0.0 0.00 0.00 0.00 99 1012.6
20260510053515 45 293 0.0 0.0 0.00 0.00 0.00 99 1012.5
20260510053013 45 288 0.0 0.0 0.00 0.00 0.00 99 1012.6
20260510052509 45 277 0.0 0.0 0.00 0.00 0.00 99 1012.6
20260510052005 45 288 0.0 0.0 0.00 0.00 0.00 99 1012.6
20260510051500 45 299 0.0 0.0 0.00 0.00 0.00 99 1012.4
20260510050957 45 276 0.0 0.0 0.00 0.00 0.00 99 1012.6
20260510050454 45 279 0.0 0.0 0.00 0.00 0.00 99 1012.6
20260510045951 45 281 0.0 0.0 0.00 0.00 0.00 99 1012.6
20260510045449 45 294 0.0 0.0 0.00 0.00 0.00 99 1012.5
20260510044945 45 299 0.0 0.0 0.00 0.00 0.00 99 1012.6
20260510044442 45 309 0.0 0.0 0.00 0.00 0.00 99 1012.6
20260510043939 45 291 0.0 0.0 0.00 0.00 0.00 99 1012.8
20260510043434 45 286 0.0 0.0 0.00 0.00 0.00 99 1012.9
20260510042933 45 294 0.0 0.0 0.00 0.00 0.00 99 1012.8
20260510042429 45 296 0.0 0.0 0.00 0.00 0.00 99 1012.7
20260510041924 45 288 0.0 0.0 0.00 0.00 0.00 99 1012.9
20260510041422 45 292 0.0 0.0 0.00 0.00 0.00 99 1012.9
20260510040919 45 288 0.0 0.0 0.00 0.00 0.00 99 1012.8
20260510040416 45 307 0.0 0.0 0.00 0.00 0.00 99 1013.0
20260510035911 45 287 0.0 0.0 0.00 0.45 0.45 99 1013.0
20260510035408 45 298 0.0 0.0 0.00 0.45 0.45 99 1013.0
20260510034903 44 288 0.0 0.0 0.00 0.45 0.45 99 1013.0
20260510034402 45 290 0.0 0.0 0.00 0.45 0.45 99 1012.9
20260510033857 44 275 0.0 0.0 0.00 0.45 0.45 99 1013.3
20260510033354 44 288 0.0 0.0 0.00 0.45 0.45 99 1013.3
20260510032850 44 305 0.0 0.0 0.00 0.45 0.45 99 1013.3
20260510032347 45 280 0.0 0.0 0.00 0.45 0.45 99 1013.3
20260510031843 44 300 0.0 0.0 0.00 0.45 0.45 99 1013.1
20260510031338 44 285 0.0 0.0 0.00 0.45 0.45 99 1013.1
20260510030838 44 283 0.0 0.0 0.00 0.45 0.45 99 1013.1
20260510030335 44 316 0.0 0.0 0.00 0.45 0.45 99 1013.4
20260510025833 45 300 0.0 0.0 0.00 0.45 0.45 99 1013.4
20260510025330 45 308 0.0 0.0 0.00 0.45 0.45 99 1013.4
20260510024826 44 315 0.0 0.0 0.05 0.45 0.45 99 1013.6
20260510024323 44 298 0.0 0.0 0.05 0.45 0.45 99 1013.5
20260510023820 44 288 0.0 0.0 0.07 0.44 0.44 99 1013.6
20260510023316 44 313 0.0 0.0 0.12 0.44 0.44 99 1013.5
20260510022813 44 284 0.0 0.0 0.12 0.43 0.43 99 1013.6
20260510022312 44 301 0.0 0.0 0.19 0.42 0.42 99 1013.5
20260510021812 44 296 0.0 0.0 0.17 0.41 0.41 99 1013.7
20260510021310 44 307 0.0 0.0 0.05 0.39 0.39 99 1013.6
20260510020806 44 313 0.0 0.0 0.00 0.38 0.38 99 1013.7
20260510020305 45 311 0.0 0.0 0.00 0.38 0.38 99 1013.7
20260510015802 45 290 0.0 0.0 0.07 0.38 0.38 99 1013.7
20260510015258 44 300 0.0 0.0 0.07 0.38 0.38 99 1013.6
20260510014753 44 284 0.0 0.0 0.00 0.37 0.37 99 1013.5
20260510014251 44 271 0.0 0.0 0.00 0.37 0.37 99 1013.6
20260510013747 44 343 0.0 0.0 0.00 0.37 0.37 99 1013.5
20260510013242 44 288 0.0 0.9 0.00 0.37 0.37 99 1013.6
20260510012738 44 304 0.0 0.0 0.00 0.37 0.37 99 1013.7
20260510012232 44 269 0.0 0.0 0.00 0.37 0.37 99 1013.5
20260510011727 44 347 0.0 0.9 0.00 0.37 0.37 99 1013.4
20260510011222 44 290 0.0 0.0 0.00 0.37 0.37 99 1013.5
20260510010719 44 276 0.0 0.0 0.00 0.37 0.37 99 1013.6
20260510010216 44 316 0.0 0.0 0.00 0.37 0.37 99 1013.5
20260510005712 44 344 0.9 0.9 0.00 0.37 0.37 99 1013.6
20260510005208 44 173 0.9 0.9 0.00 0.37 0.37 99 1013.3
20260510004707 44 304 0.9 0.9 0.00 0.37 0.37 99 1013.4
20260510004204 44 9 0.9 1.7 0.00 0.37 0.37 99 1013.3
20260510003702 44 311 0.0 0.0 0.00 0.37 0.37 99 1013.2
20260510003157 44 67 1.7 2.6 0.00 0.37 0.37 99 1013.1
20260510002651 44 15 0.0 0.9 0.00 0.37 0.37 99 1013.3
20260510002148 44 4 0.9 0.9 0.00 0.37 0.37 99 1013.3
20260510001645 44 26 0.9 0.9 0.00 0.37 0.37 99 1013.2
20260510001144 44 347 0.9 0.9 0.00 0.37 0.37 99 1013.4
20260510000645 44 5 0.9 0.9 0.05 0.37 0.37 99 1013.4
20260510000143 44 314 0.0 0.0 0.05 0.37 0.37 99 1013.6
20260509235639 44 22 1.7 1.7 0.00 0.36 0.36 99 1013.7
20260509235136 44 343 0.0 0.9 0.07 0.36 0.36 99 1013.6
20260509234631 44 332 0.9 0.9 0.07 0.36 0.36 99 1013.5
20260509234129 44 331 0.0 0.0 0.07 0.36 0.36 99 1013.8
20260509233627 44 324 0.0 0.0 0.00 0.35 0.35 99 1013.6
20260509233124 44 325 0.9 0.9 0.00 0.35 0.35 99 1013.8
20260509232620 44 326 0.0 0.9 0.00 0.35 0.35 99 1013.9
20260509232117 44 350 0.9 0.9 0.07 0.35 0.35 99 1013.7
20260509231614 44 309 0.0 0.0 0.12 0.35 0.35 99 1013.6
20260509231112 44 1 0.9 1.7 0.05 0.34 0.34 99 1013.6
20260509230608 44 8 0.9 1.7 0.00 0.33 0.33 99 1013.6
20260509230105 44 16 0.9 0.9 0.07 0.33 0.33 99 1013.5
20260509225601 44 35 1.7 2.6 0.07 0.33 0.33 99 1013.7
20260509225056 44 46 0.9 1.7 0.00 0.32 0.32 99 1013.6
20260509224552 44 65 0.9 1.7 0.05 0.32 0.32 99 1013.5
20260509224049 44 55 0.0 0.9 0.05 0.32 0.32 99 1013.5
20260509223546 44 114 3.5 6.1 0.00 0.31 0.31 99 1013.7
20260509223044 44 335 0.9 0.9 0.07 0.31 0.31 99 1013.5
20260509222539 44 26 2.6 2.6 0.07 0.31 0.31 99 1013.5
20260509222036 44 4 0.0 0.9 0.00 0.30 0.30 99 1013.7
20260509221532 44 21 2.6 3.5 0.00 0.30 0.30 99 1013.5
20260509221028 44 318 0.0 0.0 0.05 0.30 0.30 99 1013.9
20260509220524 44 100 1.7 1.7 0.05 0.30 0.30 99 1013.6
20260509220020 44 133 2.6 2.6 0.05 0.30 0.30 99 1013.9
20260509215515 44 44 2.6 5.2 0.07 0.29 0.29 99 1014.2
20260509215013 44 61 2.6 2.6 0.07 0.29 0.29 99 1014.1
20260509214510 44 38 0.9 1.7 0.05 0.28 0.28 99 1014.4
20260509214007 44 9 0.9 0.9 0.12 0.28 0.28 99 1014.3
20260509213503 44 41 0.9 0.9 0.12 0.27 0.27 99 1014.4
20260509213000 44 268 1.7 1.7 0.05 0.26 0.26 99 1014.3
20260509212457 44 41 1.7 2.6 0.07 0.25 0.25 99 1014.4
20260509211953 45 153 1.7 2.6 0.07 0.25 0.25 99 1014.4
20260509211449 45 148 1.7 2.6 0.00 0.24 0.24 99 1014.3
20260509210945 45 283 0.0 0.0 0.05 0.24 0.24 99 1014.4
20260509210437 45 81 1.7 2.6 0.05 0.24 0.24 99 1014.2
20260509205933 45 352 0.9 1.7 0.00 0.23 0.23 99 1014.0
20260509205428 45 354 0.9 0.9 0.00 0.23 0.23 99 1013.7
20260509204923 45 36 0.9 1.7 0.00 0.23 0.23 99 1014.1
20260509204420 45 24 0.9 0.9 0.00 0.23 0.23 99 1014.5
20260509203917 45 169 0.9 1.7 0.00 0.23 0.23 99 1014.2
20260509203413 45 19 0.9 1.7 0.00 0.23 0.23 99 1014.2
20260509202910 46 346 0.9 1.7 0.00 0.23 0.23 99 1014.0
20260509202406 45 335 0.9 0.9 0.00 0.23 0.23 99 1014.0
20260509201901 45 19 2.6 2.6 0.00 0.23 0.23 99 1014.0
20260509201356 45 31 0.9 0.9 0.07 0.23 0.23 99 1014.5
20260509200853 45 33 1.7 3.5 0.07 0.23 0.23 99 1014.6
20260509200348 45 50 0.0 0.0 0.07 0.22 0.22 99 1014.9
20260509195845 45 309 0.9 0.9 0.07 0.22 0.22 99 1015.0
20260509195340 45 292 0.0 0.9 0.05 0.21 0.21 98 1015.0
20260509194839 45 275 0.9 0.9 0.12 0.21 0.21 98 1014.9
20260509194336 45 343 0.9 0.9 0.12 0.20 0.20 98 1015.0
20260509193833 45 272 0.9 0.9 0.05 0.19 0.19 98 1015.0
20260509193332 45 228 0.9 0.9 0.12 0.19 0.19 98 1015.1
20260509192829 45 237 0.0 0.9 0.12 0.18 0.18 98 1014.9
20260509192325 45 273 1.7 1.7 0.12 0.17 0.17 98 1014.9
20260509191820 45 86 1.7 1.7 0.12 0.16 0.16 97 1015.0
20260509191316 45 207 0.0 0.0 0.05 0.15 0.15 97 1015.0
20260509190812 45 223 0.9 1.7 0.07 0.14 0.14 97 1014.9
20260509190310 45 100 0.0 1.7 0.12 0.14 0.14 97 1015.1
20260509185807 45 180 0.9 0.9 0.12 0.13 0.13 97 1015.2
20260509185306 46 298 0.9 0.9 0.12 0.12 0.12 97 1015.2
20260509184800 46 188 1.7 2.6 0.12 0.11 0.11 96 1015.3
20260509184258 46 180 1.7 1.7 0.07 0.10 0.10 95 1015.4
20260509183754 46 36 2.6 2.6 0.07 0.09 0.09 94 1015.4
20260509183249 46 238 0.0 0.9 0.07 0.09 0.09 94 1015.5
20260509182745 46 241 0.9 0.9 0.05 0.08 0.08 93 1015.5
20260509182243 47 279 0.9 1.7 0.12 0.08 0.08 92 1015.4
20260509181740 47 168 1.7 1.7 0.07 0.07 0.07 93 1015.4
20260509181237 47 139 0.9 0.9 0.05 0.06 0.06 93 1015.3
20260509180734 47 307 0.0 0.0 0.05 0.06 0.06 93 1015.5
20260509180231 47 163 0.9 0.9 0.07 0.05 0.05 92 1015.4
20260509175727 47 285 0.0 0.9 0.12 0.05 0.05 91 1015.3
20260509175223 47 221 0.9 0.9 0.05 0.04 0.04 90 1015.5
20260509174719 47 198 0.9 1.7 0.12 0.04 0.04 88 1015.2
20260509174215 48 257 0.0 0.9 0.07 0.03 0.03 86 1015.2
20260509173711 49 213 0.9 0.9 0.05 0.02 0.02 86 1015.2
20260509173207 49 199 0.0 0.0 0.05 0.02 0.02 86 1015.3
20260509172703 49 291 0.0 0.0 0.00 0.01 0.01 84 1015.3
20260509172200 49 224 0.9 0.9 0.00 0.01 0.01 82 1015.1
20260509171655 50 266 1.7 1.7 0.07 0.01 0.01 81 1015.2
20260509171151 50 251 1.7 2.6 0.07 0.01 0.01 79 1015.2
20260509170649 50 151 0.0 0.0 0.00 0.00 0.00 80 1015.3
20260509170145 51 66 0.0 0.9 0.00 0.00 0.00 75 1015.2
20260509165643 50 217 1.7 2.6 0.00 0.00 0.00 74 1015.2
20260509165139 51 272 2.6 3.5 0.00 0.00 0.00 75 1015.2
20260509164635 51 208 1.7 1.7 0.00 0.00 0.00 73 1015.2
20260509164131 51 238 1.7 2.6 0.00 0.00 0.00 67 1015.4
20260509163628 52 226 0.9 1.7 0.00 0.00 0.00 64 1015.3
20260509163124 53 217 2.6 5.2 0.00 0.00 0.00 62 1015.4
20260509162621 53 206 1.7 2.6 0.00 0.00 0.00 62 1015.3
20260509162117 53 185 3.5 5.2 0.00 0.00 0.00 59 1015.2
20260509161614 54 234 1.7 2.6 0.00 0.00 0.00 56 1015.3
20260509161109 54 218 3.5 5.2 0.00 0.00 0.00 58 1015.3
20260509160605 54 235 2.6 2.6 0.00 0.00 0.00 56 1015.2
20260509160100 54 206 3.5 5.2 0.00 0.00 0.00 54 1015.1
20260509155557 54 161 2.6 3.5 0.00 0.00 0.00 54 1015.1
20260509155053 55 185 1.7 1.7 0.00 0.00 0.00 52 1015.2
20260509154549 55 213 3.5 6.1 0.00 0.00 0.00 48 1015.2
20260509154047 56 287 0.9 1.7 0.00 0.00 0.00 50 1015.1
20260509153544 55 262 0.9 0.9 0.00 0.00 0.00 46 1015.2
20260509153040 56 209 1.7 3.5 0.00 0.00 0.00 48 1015.2
20260509152536 57 150 0.9 1.7 0.00 0.00 0.00 51 1015.1
20260509152034 57 175 1.7 2.6 0.00 0.00 0.00 50 1014.9
20260509151530 56 264 0.9 0.9 0.00 0.00 0.00 50 1014.7
20260509151028 56 220 2.6 3.5 0.00 0.00 0.00 50 1014.9
20260509150525 56 140 2.6 2.6 0.00 0.00 0.00 47 1014.8
20260509150024 57 145 0.9 1.7 0.00 0.00 0.00 47 1014.7
20260509145519 57 300 0.9 1.7 0.00 0.00 0.00 47 1014.7
20260509145014 57 190 1.7 1.7 0.00 0.00 0.00 46 1014.6
20260509144511 58 94 1.7 1.7 0.00 0.00 0.00 45 1014.5
20260509144008 57 131 2.6 5.2 0.00 0.00 0.00 45 1014.7
20260509143505 59 229 2.6 2.6 0.00 0.00 0.00 44 1014.6
20260509143003 58 116 0.0 0.9 0.00 0.00 0.00 46 1014.4
20260509142458 58 157 2.6 3.5 0.00 0.00 0.00 46 1014.4
20260509141954 58 132 2.6 2.6 0.00 0.00 0.00 43 1014.4
20260509141450 58 254 0.0 0.9 0.00 0.00 0.00 49 1014.4
20260509140948 57 78 0.9 1.7 0.00 0.00 0.00 49 1014.6
20260509140444 58 278 2.6 3.5 0.00 0.00 0.00 44 1014.7
20260509135942 57 267 2.6 2.6 0.00 0.00 0.00 46 1014.5
20260509135439 58 66 3.5 3.5 0.00 0.00 0.00 45 1014.4
20260509134936 58 230 0.0 0.0 0.00 0.00 0.00 43 1014.5
20260509134434 58 237 0.9 0.9 0.00 0.00 0.00 46 1014.5
20260509133931 58 194 4.3 6.1 0.00 0.00 0.00 44 1014.7
20260509133427 57 254 0.0 0.0 0.00 0.00 0.00 50 1014.8
20260509132926 57 131 2.6 3.5 0.00 0.00 0.00 48 1014.5
20260509132424 56 191 0.9 1.7 0.00 0.00 0.00 53 1014.7
20260509131920 57 218 0.9 0.9 0.00 0.00 0.00 49 1014.7
20260509131418 56 256 0.0 0.0 0.00 0.00 0.00 49 1014.9
20260509130914 56 277 0.9 1.7 0.00 0.00 0.00 50 1014.7
20260509130409 55 155 1.7 1.7 0.00 0.00 0.00 56 1014.8
20260509125907 54 256 0.0 0.9 0.00 0.00 0.00 58 1014.9
20260509125404 55 145 0.9 0.9 0.00 0.00 0.00 57 1015.0
20260509124859 54 122 0.0 0.9 0.00 0.00 0.00 58 1015.0
20260509124356 54 177 1.7 1.7 0.00 0.00 0.00 56 1015.0
20260509123854 54 172 0.9 0.9 0.00 0.00 0.00 58 1015.1
20260509123351 54 296 0.0 0.9 0.00 0.00 0.00 58 1015.2
20260509122847 53 190 1.7 1.7 0.00 0.00 0.00 58 1015.0
20260509122344 53 255 0.9 1.7 0.00 0.00 0.00 60 1015.2
20260509121841 52 251 0.9 0.9 0.00 0.00 0.00 64 1015.2
20260509121338 51 287 0.0 0.0 0.00 0.00 0.00 64 1015.2
20260509120836 51 296 0.9 0.9 0.00 0.00 0.00 65 1015.2
20260509120334 50 283 0.0 0.0 0.00 0.00 0.00 66 1015.2
20260509115832 50 277 0.0 0.0 0.00 0.00 0.00 67 1015.1
20260509115328 50 272 0.0 0.0 0.00 0.00 0.00 69 1015.2
20260509114826 49 266 0.0 0.0 0.00 0.00 0.00 67 1015.2
20260509114325 50 242 0.9 0.9 0.00 0.00 0.00 72 1015.3
20260509113824 50 317 0.0 0.0 0.00 0.00 0.00 71 1015.1
20260509113320 49 274 0.0 0.0 0.00 0.00 0.00 72 1015.2
20260509112817 48 278 0.0 0.0 0.00 0.00 0.00 74 1015.3
20260509112314 47 271 0.0 0.0 0.00 0.00 0.00 77 1015.0
20260509111811 45 280 0.0 0.0 0.00 0.00 0.00 82 1015.3
20260509111308 44 278 0.0 0.0 0.00 0.00 0.00 84 1015.1
20260509110806 44 262 0.0 0.0 0.00 0.00 0.00 80 1015.4
20260509110302 45 277 0.0 0.0 0.00 0.00 0.00 78 1015.1